Dallas Paulding County Region, GA

5:39 AM EST on November 12, 2019 (GMT -0500)
Dallas Paulding County Region

Weather History for KPUJ - June, 2019

Change the Weather History Date:

Saturday, June 8, 2019

  Actual Average (WUND) Record (WUND)
Temperature  
Mean Temperature 70 °F -  
Max Temperature 73 °F - - (-1)
Min Temperature 68 °F - - (-1)
Cooling Degree Days 6    
Growing Degree Days 20 (Base 50)    
Moisture  
Dew Point 69 °F    
Average Humidity 100    
Maximum Humidity 100    
Minimum Humidity 100    
Precipitation  
Precipitation 0.00 in - - ()
Sea Level Pressure  
Sea Level Pressure 29.82 in    
Wind  
Wind Speed 4 mph ()    
Max Wind Speed 9 mph    
Max Gust Speed -    
Visibility 6.9 miles    
Events Rain , Thunderstorm    
Averages and records for this station are not official NWS values.
T = Trace of Precipitation, MM = Missing Value Source: Averaged Metar Reports

Daily Weather History Graph

Daily Weather History Graph

Search for Another Location

Airport or City:

Astronomy

Jun. 08, 2019 Rise Set
Actual Time 6:28 AM EDT 8:49 PM EDT
Civil Twilight 5:59 AM EDT 9:18 PM EDT
Nautical Twilight 5:23 AM EDT 9:53 PM EDT
Astronomical Twilight 4:45 AM EDT 10:32 PM EDT
Moon 11:49 AM EDT (6/8) 12:55 AM EDT (6/8)
Length of Visible Light 15h 18m
Length of Day
14h 20m
Waxing Crescent, 32% of the Moon is Illuminated
Jun 8
Waxing Crescent
Jun 10
First Quarter
Jun 17
Full
Jun 25
Last Quarter
Jul 2
New

Hourly Weather History & Observations

Time (EDT) Temp. Dew Point Humidity Pressure Visibility Wind Dir Wind Speed Gust Speed Precip Events Conditions
12:15 AM 68.0 °F 68.0 °F 100% 29.81 in 7.0 mi SSE 3.5 mph - N/A   Overcast
12:35 AM 68.0 °F 68.0 °F 100% 29.81 in 7.0 mi Calm Calm - N/A   Overcast
12:55 AM 68.0 °F 68.0 °F 100% 29.81 in 5.0 mi SSE 3.5 mph - N/A Rain Light Rain
1:15 AM 68.0 °F 68.0 °F 100% 29.81 in 7.0 mi SSE 3.5 mph - N/A Rain Light Rain
1:35 AM 68.0 °F 68.0 °F 100% 29.81 in 5.0 mi Calm Calm - N/A   Overcast
1:55 AM 68.0 °F 68.0 °F 100% 29.80 in 5.0 mi SSE 3.5 mph - N/A   Overcast
2:15 AM 68.0 °F 68.0 °F 100% 29.80 in 7.0 mi SSE 4.6 mph - N/A   Overcast
2:35 AM 68.0 °F 68.0 °F 100% 29.79 in 7.0 mi South 4.6 mph - N/A   Overcast
2:55 AM 68.0 °F 68.0 °F 100% 29.79 in 10.0 mi SSE 4.6 mph - N/A   Overcast
3:15 AM 68.0 °F 68.0 °F 100% 29.79 in 10.0 mi SSE 3.5 mph - N/A   Overcast
3:35 AM 68.0 °F 68.0 °F 100% 29.79 in 7.0 mi SE 3.5 mph - N/A   Overcast
3:55 AM 68.0 °F 68.0 °F 100% 29.79 in 7.0 mi SE 3.5 mph - N/A   Overcast
4:15 AM 68.0 °F 68.0 °F 100% 29.79 in 4.0 mi SE 4.6 mph - N/A   Overcast
4:35 AM 68.0 °F 68.0 °F 100% 29.79 in 2.5 mi SSE 3.5 mph - N/A   Overcast
4:55 AM 68.0 °F 68.0 °F 100% 29.79 in 1.0 mi SSE 4.6 mph - N/A   Overcast
5:15 AM 68.0 °F 68.0 °F 100% 29.79 in 0.5 mi SSE 4.6 mph - N/A Rain Light Rain
5:35 AM 68.0 °F 68.0 °F 100% 29.80 in 0.8 mi SSE 5.8 mph - N/A Rain Light Rain
5:55 AM 68.0 °F 68.0 °F 100% 29.80 in 1.2 mi SSE 4.6 mph - N/A Thunderstorm Overcast
6:15 AM 68.0 °F 68.0 °F 100% 29.80 in 2.0 mi SSE 3.5 mph - N/A Rain , Thunderstorm Rain
6:35 AM 68.0 °F 68.0 °F 100% 29.81 in 1.0 mi SSE 4.6 mph - N/A Rain , Thunderstorm Heavy Thunderstorms and Rain
6:55 AM 68.0 °F 68.0 °F 100% 29.81 in 3.0 mi SSE 3.5 mph - N/A Rain , Thunderstorm Heavy Thunderstorms and Rain
7:15 AM 68.0 °F 68.0 °F 100% 29.80 in 5.0 mi ESE 5.8 mph - N/A Rain , Thunderstorm Rain
7:35 AM 68.0 °F 68.0 °F 100% 29.80 in 5.0 mi ESE 5.8 mph - N/A Rain , Thunderstorm Rain
7:55 AM 68.0 °F 68.0 °F 100% 29.81 in 4.0 mi SE 4.6 mph - N/A Rain , Thunderstorm Light Thunderstorms and Rain
8:15 AM 68.0 °F 68.0 °F 100% 29.80 in 1.8 mi ESE 9.2 mph - N/A Rain Rain
8:35 AM 68.0 °F 68.0 °F 100% 29.82 in 1.2 mi South 3.5 mph - N/A   Overcast
8:55 AM 68.0 °F 68.0 °F 100% 29.82 in 1.5 mi SE 3.5 mph - N/A Rain , Thunderstorm Rain
9:15 AM 68.0 °F 68.0 °F 100% 29.83 in 2.0 mi SSE 5.8 mph - N/A Rain , Thunderstorm Rain
9:35 AM 68.0 °F - N/A% 29.83 in 3.0 mi SE 5.8 mph - N/A Rain Rain
9:55 AM 68.0 °F - N/A% 29.82 in 5.0 mi SE 4.6 mph - N/A Rain Light Rain
10:15 AM 68.0 °F - N/A% 29.83 in 10.0 mi ESE 6.9 mph - N/A Rain Light Rain
10:35 AM 68.0 °F - N/A% 29.82 in 10.0 mi SE 6.9 mph - N/A   Overcast
10:55 AM 68.0 °F - N/A% 29.83 in 10.0 mi SE 5.8 mph - N/A   Overcast
11:15 AM 68.0 °F - N/A% 29.83 in 10.0 mi SE 8.1 mph - N/A   Overcast
11:35 AM 68.0 °F - N/A% 29.85 in 2.5 mi SSE 6.9 mph - N/A Rain , Thunderstorm Heavy Thunderstorms and Rain
11:55 AM 68.0 °F - N/A% 29.84 in 5.0 mi SE 5.8 mph - N/A Rain , Thunderstorm Light Thunderstorms and Rain
12:15 PM 68.0 °F - N/A% 29.83 in 4.0 mi SE 5.8 mph - N/A Rain Rain
12:35 PM 68.0 °F - N/A% 29.83 in 3.0 mi ESE 6.9 mph - N/A Rain Rain
12:55 PM 68.0 °F - N/A% 29.83 in 2.0 mi ESE 8.1 mph - N/A Rain , Thunderstorm Rain
1:35 PM 68.0 °F - N/A% 29.82 in 10.0 mi SE 5.8 mph - N/A Rain , Thunderstorm Light Thunderstorms and Rain
1:55 PM 68.0 °F - N/A% 29.82 in 10.0 mi SE 8.1 mph - N/A Thunderstorm Overcast
2:15 PM 68.0 °F - N/A% 29.83 in 10.0 mi SE 8.1 mph - N/A Rain Light Rain
2:35 PM 68.0 °F - N/A% 29.82 in 10.0 mi SE 5.8 mph - N/A Thunderstorm Overcast
2:55 PM 68.0 °F - N/A% 29.82 in 10.0 mi SE 4.6 mph - N/A   Overcast
3:15 PM 69.8 °F - N/A% 29.81 in 10.0 mi SE 5.8 mph - N/A   Overcast
3:35 PM 71.6 °F - N/A% 29.80 in 10.0 mi SSE 5.8 mph - N/A   Overcast
3:55 PM 73.4 °F 73.4 °F 100% 29.79 in 10.0 mi SE 5.8 mph - N/A   Overcast
4:15 PM 73.4 °F 73.4 °F 100% 29.79 in 10.0 mi SSE 9.2 mph - N/A   Overcast
4:35 PM 73.4 °F 73.4 °F 100% 29.79 in 10.0 mi SE 9.2 mph - N/A   Overcast
4:55 PM 73.4 °F 73.4 °F 100% 29.80 in 10.0 mi SE 6.9 mph - N/A   Overcast
5:15 PM 73.4 °F 73.4 °F 100% 29.80 in 10.0 mi SE 6.9 mph - N/A   Overcast
5:35 PM 71.6 °F 71.6 °F 100% 29.80 in 10.0 mi SE 5.8 mph - N/A   Overcast
5:55 PM 71.6 °F 71.6 °F 100% 29.82 in 10.0 mi ESE 6.9 mph - N/A   Overcast
6:15 PM 71.6 °F 71.6 °F 100% 29.81 in 10.0 mi SE 5.8 mph - N/A Rain Light Rain
6:35 PM 71.6 °F 71.6 °F 100% 29.82 in 10.0 mi ESE 8.1 mph - N/A   Overcast
6:55 PM 69.8 °F 69.8 °F 100% 29.83 in 10.0 mi SE 5.8 mph - N/A Thunderstorm Overcast
7:15 PM 69.8 °F 69.8 °F 100% 29.83 in 10.0 mi SE 6.9 mph - N/A   Overcast
7:35 PM 69.8 °F 69.8 °F 100% 29.83 in 10.0 mi SE 4.6 mph - N/A   Overcast
7:55 PM 69.8 °F 69.8 °F 100% 29.83 in 10.0 mi SE 5.8 mph - N/A   Overcast
8:15 PM 69.8 °F 69.8 °F 100% 29.83 in 10.0 mi SE 5.8 mph - N/A   Overcast
8:35 PM 69.8 °F 69.8 °F 100% 29.83 in 7.0 mi ESE 8.1 mph - N/A   Overcast
8:55 PM 69.8 °F 69.8 °F 100% 29.83 in 10.0 mi SE 6.9 mph - N/A   Overcast
9:15 PM 69.8 °F 69.8 °F 100% 29.83 in 7.0 mi SE 5.8 mph - N/A   Overcast
9:35 PM 69.8 °F 69.8 °F 100% 29.83 in 10.0 mi SSE 3.5 mph - N/A Rain Light Rain
9:55 PM 69.8 °F 69.8 °F 100% 29.83 in 10.0 mi SE 3.5 mph - N/A   Drizzle
10:15 PM 69.8 °F 69.8 °F 100% 29.84 in 10.0 mi SE 4.6 mph - N/A   Overcast
10:35 PM 69.8 °F 69.8 °F 100% 29.85 in 10.0 mi SE 6.9 mph - N/A   Overcast
10:55 PM 69.8 °F 69.8 °F 100% 29.86 in 10.0 mi SE 4.6 mph - N/A   Overcast
11:15 PM 69.8 °F 69.8 °F 100% 29.86 in 10.0 mi ESE 5.8 mph - N/A   Overcast
11:35 PM 69.8 °F 69.8 °F 100% 29.86 in 5.0 mi SE 3.5 mph - N/A   Overcast
11:55 PM 68.0 °F 68.0 °F 100% 29.86 in 5.0 mi ESE 4.6 mph - N/A   Overcast